Location: Black Swamp Observatory
(41.3920°N, 84.1250°W)
Time: 14:33:58
(UTC-05:00)

SR - Visible Passes

Search period start: 25 January 2022 00:00
Search period end: 04 February 2022 00:00
Orbit: 582 x 872 km, 66.7° (Epoch: 24 January)

Date Brightness Start Highest point End Pass type
(mag) Time Alt. Az. Time Alt. Az. Time Alt. Az.
25 Jan ? 18:45:59 10° N 18:49:46 24° NE 18:51:50 18° E visible
25 Jan ? 20:27:22 10° NW 20:31:20 45° W 20:31:20 45° W visible
26 Jan ? 19:37:21 10° NNW 19:42:07 83° ENE 19:44:28 33° SE visible
26 Jan ? 21:21:52 10° W 21:23:36 12° WSW 21:24:00 12° WSW visible
27 Jan ? 18:47:40 10° NNW 18:52:09 41° NE 18:56:59 10° SE visible
27 Jan ? 20:30:04 10° NW 20:34:00 25° WSW 20:38:09 10° SSW visible
28 Jan ? 19:39:36 10° NW 19:44:16 52° WSW 19:49:19 10° S visible
29 Jan ? 18:49:37 10° NNW 18:54:25 77° ENE 18:59:37 10° SSE visible
29 Jan ? 20:33:42 10° W 20:35:56 13° WSW 20:38:13 10° SW visible
30 Jan ? 19:42:13 10° NW 19:46:19 27° WSW 19:50:41 10° SSW visible
31 Jan ? 18:51:50 10° NW 18:56:34 56° WSW 19:01:41 10° SSE visible
01 Feb ? 19:45:38 10° WNW 19:48:15 14° WSW 19:50:58 10° SW visible
02 Feb ? 18:54:23 10° NW 18:58:37 30° WSW 19:03:10 10° S visible
